SCP
0 0 0 0 0 0 0 0 0 0 0 0 0 0 0 0 0 0 0 0 0 0 0 0 0 0 0 0 0 0 0 0 0 -0 0 0 0 0 0 0 0 0 0 0 0
0 0 0 0 0 0 0 0 0 0 0 0 0 0 0 0 0 0 0 0 0 0 0 0 0 0 0 0 0 0 0 0 -0 0 0 0 0 0 0 0 0 0 0 0 0
0 0 0 0 0 0 0 0 0 0 0 0 0 0 0 0 0 0 0 0 0 0 0 0 0 0 0 0 0 0 0 0 0 0 0 0 0 0 0 0 0 0 0 0 0
0 0 0 0 0 0 0 0 0 0 0 0 0 0 0 0 0 0 0 0 0 0 0 0 0 0 0 0 0 0 0 0 0 0 0 0 0 0 0 0 0 0 0 0 0
0 0 0 0 0 0 0 0 0 0 0 0 0 0 0 0 0 0 0 0 0 0 0 0 0 0 0 0 0 0 0 0 0 0 0 0 0 0 0 0 0 0 0 0 0
0 0 0 0 0 0 0 0 0 0 0 0 0 0 0 0 0 0 0 0 0 0 0 0 0 0 0 0 0 0 0 0 0 0 0 0 0 0 0 0 0 0 0 0 0
0 0 0 0 0 0 0 0 0 0 0 0 0 0 0 0 0 0 0 0 0 0 0 0 0 0 -0 0 -0 -0 0 0 0 0 0 -0 -0 -0 0 0 0 0 0 0 0
0 0 0 0 0 0 0 0 0 0 0 0 0 0 0 0 0 0 0 0 0 0 0 0 0 0 0 -0 0 -0 -0 0 0 0 0 0 -0 0 0 0 0 0 0 0 0
0 0 0 0 0 0 0 0 0 0 0 0 0 0 0 0 0 0 0 0 0 0 0 0 0 0 0 0 0 -0 -0 0 0 0 0 0 0 0 0 0 0 0 0 0 0
0 0 0 0 0 0 0 0 0 0 0 0 0 0 0 0 0 0 0 0 0 0 0 0 0 -0 -0 -0 0 0 0 0 0 0 0 0 -0 0 0 0 0 0 0 0 0
0 0 0 0 0 0 0 0 0 0 0 0 0 0 0 0 0 0 0 0 0 0 0 -0 -0 -0 0 0 0 0 0 0 0 -0 0 0 0 0 0 0 0 0 0 0 0
0 0 0 0 0 0 0 0 0 0 0 0 0 0 0 0 0 -0 -0 0 0 0 0 0 0 0 0 0 0 0 0 0 -0 -0 -0 0 0 0 0 0 0 0 0 0 0
0 0 0 0 0 0 0 0 0 0 0 0 0 0 0 0 0 0 0 0 0 0 0 0 0 0 0 0 0 0 0 0 0 0 0 0 0 0 0 0 0 0 0 0 0
0 0 0 0 -0 0 0 0 0 0 0 0 0 0 0 0 0 0 0 0 0 0 0 0 0 0 0 0 -0 0 0 0 0 -0 0 0 0 0 0 0 0 0 0 0 0
0 0 0 0 0 0 0 0 0 0 0 0 0 0 0 0 0 0 0 0 0 0 0 0 0 0 0 0 -0 0 0 0 0 0 0 0 0 0 0 0 0 0 0 0 0
0 0 0 0 0 0 0 0 0 0 0 0 0 0 0 0 0 0 0 0 0 0 -0 -0 -0 -0 -0 -0 0 0 0 0 0 0 0 0 0 0 0 0 0 0 0 0 0
0 0 0 0 0 0 0 0 0 0 0 0 0 0 0 0 0 0 0 0 -0 0 -0 -0 -0 0 0 0 0 0 0 -0 -0 -0 0 0 0 -0 0 0 0 0 0 0 0
0 0 0 0 0 0 0 0 0 0 0 0 0 0 0 0 0 0 0 -0 0 0 -0 -0 -0 0 0 0 0 0 0 -0 -0 -0 0 0 0 0 0 0 0 0 0 0 0
0 0 0 0 0 0 0 0 0 0 0 0 0 0 0 0 0 0 -0 -0 -0 -0 -0 -0 0 0 0 0 0 0 0 0 0 0 0 0 0 0 0 0 0 0 0 0 0
0 0 0 0 0 0 0 0 0 0 0 0 0 0 0 0 0 -0 -0 0 0 0 0 0 0 0 0 0 0 0 0 0 0 0 0 0 0 0 0 0 0 0 0 0 0
0 0 0 0 0 0 0 0 0 0 0 0 0 0 0 0 0 0 0 0 0 0 0 0 0 0 0 0 0 0 0 0 0 0 0 0 0 0 0 0 0 0 0 0 0
0 0 0 0 0 0 0 0 0 0 0 0 0 0 0 0 0 0 0 0 0 0 0 0 0 0 0 0 0 0 0 0 0 0 0 0 0 0 0 0 0 0 0 0 0
0 0 0 0 0 0 0 0 0 0 0 0 0 0 0 0 0 0 0 0 0 0 0 0 0 0 0 0 0 0 0 0 0 0 0 0 0 0 0 0 0 0 0 0 0
0 0 0 0 0 0 0 -0 0 0 0 0 0 0 0 0 0 0 0 0 0 0 0 0 0 0 0 0 0 0 0 0 0 0 0 0 0 0 0 0 0 0 0 0 0
0 0 0 0 0 0 0 0 0 0 0 0 0 0 0 0 0 0 0 0 0 0 0 0 0 0 0 0 0 0 0 0 0 0 0 0 0 0 0 0 0 0 0 0 0
0 0 0 0 0 0 0 0 0 0 0 0 0 0 0 0 0 0 0 0 0 0 0 0 0 0 0 0 0 0 0 0 0 0 0 0 0 0 0 0 0 0 0 0 0
0 0 0 0 0 0 0 0 0 0 0 0 0 0 0 0 0 0 0 0 0 0 0 0 0 0 0 0 0 0 0 0 0 0 0 0 0 0 0 0 0 0 0 0 0
Wind_Speed_500mb
33 33 31 32 29 26 21 16 11 8 14 21 29 32 37 34 22 16 22 18 12 9 14 19 18 17 14 14 14 10 4 8 10 12 8 5 2 4 6 7 1 3 4 12 16
35 30 28 27 28 27 24 17 11 11 16 20 23 32 38 37 25 39 28 13 12 11 13 21 12 15 12 13 15 18 7 11 13 14 10 8 8 6 4 11 8 5 2 12 11
37 36 34 30 28 28 26 22 15 16 19 18 23 22 17 16 18 28 20 11 14 13 13 16 17 18 15 17 19 15 7 11 12 5 9 6 4 3 8 11 17 16 20 15 11
42 37 34 28 29 31 38 37 28 25 22 17 9 8 25 13 7 26 18 13 15 16 15 15 11 10 10 11 8 11 12 10 1 3 5 4 9 9 21 8 10 15 14 18 14
35 34 39 36 29 29 31 33 30 26 23 25 28 27 23 30 21 30 21 15 15 16 14 14 18 11 9 8 10 11 6 8 6 7 5 13 16 13 27 24 25 16 20 16 19
36 30 31 30 27 29 30 28 34 31 30 32 31 27 25 35 31 30 30 18 17 22 22 15 17 23 22 10 12 13 17 9 5 5 6 9 11 3 12 29 23 22 21 22 25
40 31 31 26 25 24 29 29 28 33 34 28 26 41 62 30 30 30 36 35 22 23 31 26 13 1 12 10 13 12 4 8 3 7 5 15 14 21 36 27 22 31 26 27 30
40 32 34 28 24 23 23 23 22 23 26 27 31 39 23 29 28 22 30 31 35 31 31 26 26 31 12 21 7 3 3 6 2 11 3 6 17 16 33 31 31 34 35 36 32
41 32 30 40 24 24 25 22 19 25 27 25 22 19 13 22 31 27 24 25 30 28 29 29 31 20 3 2 4 1 6 9 5 3 6 11 18 9 20 27 34 38 41 37 35
38 31 31 27 21 30 37 48 45 2 7 19 22 15 27 24 35 28 21 20 20 18 14 22 18 10 10 12 4 8 8 11 13 4 5 18 44 35 51 56 44 36 35 43 41
34 28 19 21 21 3 3 10 13 23 65 32 24 15 21 13 37 28 16 19 12 24 11 18 18 9 11 11 10 12 13 17 14 7 13 16 36 39 42 44 38 39 37 36 38
30 29 18 15 21 28 19 23 23 23 26 35 35 30 34 29 19 34 21 13 20 10 3 13 9 8 11 10 11 12 14 13 11 5 12 18 44 33 3 5 11 12 32 28 27
27 28 23 8 11 11 23 28 20 15 9 19 29 27 20 24 20 40 22 12 15 15 17 12 5 7 5 7 13 2 5 8 11 23 10 19 17 6 1 6 9 13 9 15 15
26 28 24 8 5 6 5 8 6 5 10 25 22 20 29 7 12 36 22 8 13 4 8 10 4 4 10 3 8 8 11 12 16 12 6 12 9 13 7 5 1 6 7 11 15
26 30 26 14 5 5 6 6 5 4 10 18 15 15 20 15 11 27 33 14 9 3 2 1 7 9 4 6 7 6 10 8 5 5 11 5 5 15 1 3 9 8 1 6 13
28 35 24 12 13 12 10 7 4 12 5 11 14 19 10 24 13 23 17 19 8 4 11 6 4 7 9 7 5 18 8 4 1 3 5 5 6 12 4 3 6 11 11 8 7
25 49 28 21 13 10 10 5 11 12 6 13 9 12 7 15 15 19 9 16 9 10 13 4 6 5 5 6 5 7 8 8 10 7 9 6 4 20 13 9 8 12 13 12 16
11 43 38 26 15 12 11 10 17 1 5 2 4 8 10 13 5 12 5 5 15 10 2 7 10 5 11 6 2 6 3 7 7 6 10 2 12 12 6 8 9 8 11 15 20
13 23 55 28 15 9 5 13 9 7 3 7 4 9 10 5 2 11 11 7 9 13 7 9 9 3 7 5 2 3 2 2 1 4 5 8 13 14 9 12 16 15 14 16 9
17 14 60 27 16 6 13 7 4 4 5 7 4 2 1 10 6 9 9 4 4 6 3 2 9 2 3 2 3 2 3 5 3 12 13 10 9 11 6 2 8 13 8 8 16
20 9 52 32 15 18 9 4 3 1 5 9 5 5 5 3 4 5 2 2 4 6 4 4 4 6 5 6 8 1 2 5 1 5 7 10 12 9 7 10 10 2 2 16 26
18 10 45 24 14 13 6 4 3 3 5 4 5 4 2 1 4 1 3 1 4 2 4 3 2 9 12 6 5 1 3 9 7 10 9 5 21 4 10 17 10 2 9 22 17
9 13 32 19 8 5 2 1 2 3 3 2 3 5 5 1 6 2 3 2 1 2 1 3 3 8 11 2 1 5 9 7 2 1 13 5 14 1 5 7 3 7 24 11 15
8 7 17 27 19 11 6 1 3 4 4 6 7 5 5 2 3 5 4 4 6 3 2 2 4 12 11 12 2 8 11 11 11 4 7 28 49 43 26 8 20 18 10 15 14
13 6 4 4 10 10 3 9 3 4 5 7 1 8 10 4 5 6 6 4 5 6 5 5 8 6 13 25 11 31 30 18 24 29 13 49 21 49 32 29 30 13 16 16 14
9 5 7 4 2 2 3 7 11 5 9 5 5 9 11 9 10 8 6 8 7 9 9 3 6 6 13 8 8 18 21 20 33 36 28 54 59 42 41 5 16 18 17 17 15
10 6 4 1 1 2 6 8 9 9 12 7 9 4 8 11 15 14 13 7 2 7 10 7 5 2 12 8 18 16 20 15 12 12 13 14 22 6 4 12 17 20 19 17 12
Wind_Direction_500mb
28 33 40 49 43 40 43 54 62 67 88 108 97 98 96 84 72 58 49 14 42 81 104 97 97 92 69 54 44 8 77 106 17 29 105 149 229 44 47 113 84 292 254 181 187
30 34 35 37 35 43 43 40 51 88 108 119 108 106 103 100 82 47 16 17 71 99 115 98 83 68 62 27 20 36 48 38 9 4 68 68 331 72 231 162 180 147 219 202 187
38 42 46 47 48 41 37 46 67 95 108 115 111 95 65 87 79 11 12 67 89 99 92 93 82 65 59 40 14 11 62 129 45 14 13 40 227 218 269 237 231 209 189 181 195
41 37 39 42 48 56 56 54 75 91 103 108 94 73 61 38 70 5 35 82 102 104 92 65 46 57 67 53 27 101 43 51 32 328 334 340 325 260 236 271 219 184 178 203 207
25 30 37 41 46 51 43 54 73 78 83 89 85 84 79 75 32 25 48 81 96 98 92 89 75 79 94 94 64 88 150 74 76 52 353 314 271 274 264 247 250 234 223 210 213
16 20 30 40 43 51 59 67 73 76 84 92 86 80 86 76 40 40 56 68 97 95 98 100 93 109 92 57 43 108 102 109 75 14 316 322 281 308 281 220 243 226 228 217 221
21 32 35 44 49 55 64 66 77 85 83 78 70 67 67 56 44 47 72 68 80 100 105 94 89 104 106 106 111 150 87 183 124 347 331 334 277 228 247 215 221 224 232 225 230
30 39 45 56 67 71 69 74 82 74 72 74 70 69 69 45 47 65 68 74 78 79 82 87 83 74 71 112 143 213 282 299 75 345 191 35 273 341 199 203 226 230 227 226 235
30 45 50 56 78 80 86 75 75 78 74 65 67 82 44 22 39 49 58 65 74 65 63 63 72 67 76 271 126 47 298 339 231 138 299 212 273 206 206 218 229 233 234 226 231
29 41 55 60 84 89 81 71 65 204 66 45 56 64 26 12 31 38 49 51 48 47 32 47 58 63 22 14 106 330 328 323 301 87 320 273 266 269 263 247 230 234 245 234 228
28 34 38 49 48 265 357 51 58 45 64 67 60 78 34 50 46 28 48 53 59 50 41 35 60 45 7 10 312 292 300 294 293 44 340 260 274 284 277 267 220 230 237 250 230
22 25 20 30 48 61 105 99 107 116 76 53 57 49 40 41 36 45 65 75 50 45 77 43 63 8 315 286 298 285 298 302 315 73 346 305 298 289 348 325 323 304 223 245 239
25 21 18 30 65 99 94 100 112 109 89 33 35 30 22 44 42 13 32 54 59 41 33 89 73 296 286 12 354 282 310 354 288 322 259 300 286 160 233 311 301 308 274 264 261
22 22 20 53 116 137 105 93 97 127 77 344 357 20 6 33 38 18 29 62 41 137 47 78 183 304 314 73 340 306 31 338 313 4 307 30 285 316 158 191 176 346 300 264 256
23 12 20 34 92 116 135 109 113 120 60 335 348 348 12 59 334 13 26 49 55 26 189 37 6 4 344 13 3 303 340 302 358 348 358 17 53 272 109 143 95 104 100 291 272
36 20 32 51 59 103 112 102 62 43 49 339 337 358 24 20 26 359 23 38 66 298 51 85 61 24 350 307 237 303 328 230 290 201 2 251 91 284 32 23 121 124 88 9 345
45 26 36 45 59 103 121 73 40 85 360 329 335 355 346 359 5 15 36 33 44 32 8 332 87 100 1 313 201 295 13 341 356 359 233 303 343 250 284 59 69 71 57 6 358
38 27 35 40 61 115 132 53 68 318 270 340 308 291 65 359 359 335 59 70 46 9 341 49 330 23 345 56 276 352 96 123 286 298 280 311 231 257 130 103 65 68 48 47 42
26 20 26 33 48 117 103 53 166 204 269 341 264 57 350 358 29 13 36 44 42 15 56 17 271 115 40 354 14 337 67 40 245 85 40 237 280 299 53 43 72 73 66 74 23
9 7 10 14 39 95 72 127 189 255 303 241 91 110 309 327 8 37 15 7 95 46 344 79 303 180 169 234 79 94 326 34 343 334 310 282 274 245 275 56 343 63 40 3 330
18 23 1 3 9 56 88 174 233 268 350 358 38 28 40 333 336 333 346 138 30 124 41 110 115 287 104 195 165 47 34 40 125 156 226 298 257 226 180 180 167 269 337 304 322
25 34 359 4 39 50 65 152 112 100 39 18 350 65 264 164 279 339 319 70 61 66 78 113 103 272 244 94 45 317 201 188 145 259 228 195 272 4 175 171 150 347 296 313 314
32 8 12 24 73 44 68 39 83 134 110 50 62 28 53 156 357 331 288 102 161 1 47 146 268 327 318 11 136 197 200 178 113 108 213 187 260 220 218 198 254 307 325 334 336
15 22 30 52 72 109 135 320 143 191 181 167 147 144 179 22 230 278 260 180 198 161 210 66 255 205 225 235 109 253 198 204 163 205 230 236 271 276 273 266 338 319 315 316 316
23 59 33 328 23 76 77 160 120 242 229 205 314 231 174 176 226 233 234 185 184 180 164 161 236 304 261 272 262 267 261 210 207 230 226 271 272 275 294 308 307 307 310 309 292
31 23 45 77 56 112 106 221 179 244 154 257 226 183 182 188 213 238 184 206 212 168 190 131 276 18 292 289 278 276 260 231 235 252 253 262 275 280 285 243 289 286 286 267 283
8 26 353 191 187 81 224 186 223 169 197 180 207 162 249 252 274 270 250 272 70 146 179 157 173 61 263 341 335 295 248 182 213 211 175 216 251 165 272 260 272 273 278 280 283
Wind_Speed_850mb
33 33 31 32 29 26 21 16 11 8 14 21 29 32 37 34 22 16 22 18 12 9 14 19 18 17 14 14 14 10 4 8 10 12 8 5 2 4 6 7 1 3 4 12 16
35 30 28 27 28 27 24 17 11 11 16 20 23 32 38 37 25 39 28 13 12 11 13 21 12 15 12 13 15 18 7 11 13 14 10 8 8 6 4 11 8 5 2 12 11
37 36 34 30 28 28 26 22 15 16 19 18 23 22 17 16 18 28 20 11 14 13 13 16 17 18 15 17 19 15 7 11 12 5 9 6 4 3 8 11 17 16 20 15 11
42 37 34 28 29 31 38 37 28 25 22 17 9 8 25 13 7 26 18 13 15 16 15 15 11 10 10 11 8 11 12 10 1 3 5 4 9 9 21 8 10 15 14 18 14
35 34 39 36 29 29 31 33 30 26 23 25 28 27 23 30 21 30 21 15 15 16 14 14 18 11 9 8 10 11 6 8 6 7 5 13 16 13 27 24 25 16 20 16 19
36 30 31 30 27 29 30 28 34 31 30 32 31 27 25 35 31 30 30 18 17 22 22 15 17 23 22 10 12 13 17 9 5 5 6 9 11 3 12 29 23 22 21 22 25
40 31 31 26 25 24 29 29 28 33 34 28 26 41 62 30 30 30 36 35 22 23 31 26 13 1 12 10 13 12 4 8 3 7 5 15 14 21 36 27 22 31 26 27 30
40 32 34 28 24 23 23 23 22 23 26 27 31 39 23 29 28 22 30 31 35 31 31 26 26 31 12 21 7 3 3 6 2 11 3 6 17 16 33 31 31 34 35 36 32
41 32 30 40 24 24 25 22 19 25 27 25 22 19 13 22 31 27 24 25 30 28 29 29 31 20 3 2 4 1 6 9 5 3 6 11 18 9 20 27 34 38 41 37 35
38 31 31 27 21 30 37 48 45 2 7 19 22 15 27 24 35 28 21 20 20 18 14 22 18 10 10 12 4 8 8 11 13 4 5 18 44 35 51 56 44 36 35 43 41
34 28 19 21 21 3 3 10 13 23 65 32 24 15 21 13 37 28 16 19 12 24 11 18 18 9 11 11 10 12 13 17 14 7 13 16 36 39 42 44 38 39 37 36 38
30 29 18 15 21 28 19 23 23 23 26 35 35 30 34 29 19 34 21 13 20 10 3 13 9 8 11 10 11 12 14 13 11 5 12 18 44 33 3 5 11 12 32 28 27
27 28 23 8 11 11 23 28 20 15 9 19 29 27 20 24 20 40 22 12 15 15 17 12 5 7 5 7 13 2 5 8 11 23 10 19 17 6 1 6 9 13 9 15 15
26 28 24 8 5 6 5 8 6 5 10 25 22 20 29 7 12 36 22 8 13 4 8 10 4 4 10 3 8 8 11 12 16 12 6 12 9 13 7 5 1 6 7 11 15
26 30 26 14 5 5 6 6 5 4 10 18 15 15 20 15 11 27 33 14 9 3 2 1 7 9 4 6 7 6 10 8 5 5 11 5 5 15 1 3 9 8 1 6 13
28 35 24 12 13 12 10 7 4 12 5 11 14 19 10 24 13 23 17 19 8 4 11 6 4 7 9 7 5 18 8 4 1 3 5 5 6 12 4 3 6 11 11 8 7
25 49 28 21 13 10 10 5 11 12 6 13 9 12 7 15 15 19 9 16 9 10 13 4 6 5 5 6 5 7 8 8 10 7 9 6 4 20 13 9 8 12 13 12 16
11 43 38 26 15 12 11 10 17 1 5 2 4 8 10 13 5 12 5 5 15 10 2 7 10 5 11 6 2 6 3 7 7 6 10 2 12 12 6 8 9 8 11 15 20
13 23 55 28 15 9 5 13 9 7 3 7 4 9 10 5 2 11 11 7 9 13 7 9 9 3 7 5 2 3 2 2 1 4 5 8 13 14 9 12 16 15 14 16 9
17 14 60 27 16 6 13 7 4 4 5 7 4 2 1 10 6 9 9 4 4 6 3 2 9 2 3 2 3 2 3 5 3 12 13 10 9 11 6 2 8 13 8 8 16
20 9 52 32 15 18 9 4 3 1 5 9 5 5 5 3 4 5 2 2 4 6 4 4 4 6 5 6 8 1 2 5 1 5 7 10 12 9 7 10 10 2 2 16 26
18 10 45 24 14 13 6 4 3 3 5 4 5 4 2 1 4 1 3 1 4 2 4 3 2 9 12 6 5 1 3 9 7 10 9 5 21 4 10 17 10 2 9 22 17
9 13 32 19 8 5 2 1 2 3 3 2 3 5 5 1 6 2 3 2 1 2 1 3 3 8 11 2 1 5 9 7 2 1 13 5 14 1 5 7 3 7 24 11 15
8 7 17 27 19 11 6 1 3 4 4 6 7 5 5 2 3 5 4 4 6 3 2 2 4 12 11 12 2 8 11 11 11 4 7 28 49 43 26 8 20 18 10 15 14
13 6 4 4 10 10 3 9 3 4 5 7 1 8 10 4 5 6 6 4 5 6 5 5 8 6 13 25 11 31 30 18 24 29 13 49 21 49 32 29 30 13 16 16 14
9 5 7 4 2 2 3 7 11 5 9 5 5 9 11 9 10 8 6 8 7 9 9 3 6 6 13 8 8 18 21 20 33 36 28 54 59 42 41 5 16 18 17 17 15
10 6 4 1 1 2 6 8 9 9 12 7 9 4 8 11 15 14 13 7 2 7 10 7 5 2 12 8 18 16 20 15 12 12 13 14 22 6 4 12 17 20 19 17 12
Wind_Direction_850mb
28 33 40 49 43 40 43 54 62 67 88 108 97 98 96 84 72 58 49 14 42 81 104 97 97 92 69 54 44 8 77 106 17 29 105 149 229 44 47 113 84 292 254 181 187
30 34 35 37 35 43 43 40 51 88 108 119 108 106 103 100 82 47 16 17 71 99 115 98 83 68 62 27 20 36 48 38 9 4 68 68 331 72 231 162 180 147 219 202 187
38 42 46 47 48 41 37 46 67 95 108 115 111 95 65 87 79 11 12 67 89 99 92 93 82 65 59 40 14 11 62 129 45 14 13 40 227 218 269 237 231 209 189 181 195
41 37 39 42 48 56 56 54 75 91 103 108 94 73 61 38 70 5 35 82 102 104 92 65 46 57 67 53 27 101 43 51 32 328 334 340 325 260 236 271 219 184 178 203 207
25 30 37 41 46 51 43 54 73 78 83 89 85 84 79 75 32 25 48 81 96 98 92 89 75 79 94 94 64 88 150 74 76 52 353 314 271 274 264 247 250 234 223 210 213
16 20 30 40 43 51 59 67 73 76 84 92 86 80 86 76 40 40 56 68 97 95 98 100 93 109 92 57 43 108 102 109 75 14 316 322 281 308 281 220 243 226 228 217 221
21 32 35 44 49 55 64 66 77 85 83 78 70 67 67 56 44 47 72 68 80 100 105 94 89 104 106 106 111 150 87 183 124 347 331 334 277 228 247 215 221 224 232 225 230
30 39 45 56 67 71 69 74 82 74 72 74 70 69 69 45 47 65 68 74 78 79 82 87 83 74 71 112 143 213 282 299 75 345 191 35 273 341 199 203 226 230 227 226 235
30 45 50 56 78 80 86 75 75 78 74 65 67 82 44 22 39 49 58 65 74 65 63 63 72 67 76 271 126 47 298 339 231 138 299 212 273 206 206 218 229 233 234 226 231
29 41 55 60 84 89 81 71 65 204 66 45 56 64 26 12 31 38 49 51 48 47 32 47 58 63 22 14 106 330 328 323 301 87 320 273 266 269 263 247 230 234 245 234 228
28 34 38 49 48 265 357 51 58 45 64 67 60 78 34 50 46 28 48 53 59 50 41 35 60 45 7 10 312 292 300 294 293 44 340 260 274 284 277 267 220 230 237 250 230
22 25 20 30 48 61 105 99 107 116 76 53 57 49 40 41 36 45 65 75 50 45 77 43 63 8 315 286 298 285 298 302 315 73 346 305 298 289 348 325 323 304 223 245 239
25 21 18 30 65 99 94 100 112 109 89 33 35 30 22 44 42 13 32 54 59 41 33 89 73 296 286 12 354 282 310 354 288 322 259 300 286 160 233 311 301 308 274 264 261
22 22 20 53 116 137 105 93 97 127 77 344 357 20 6 33 38 18 29 62 41 137 47 78 183 304 314 73 340 306 31 338 313 4 307 30 285 316 158 191 176 346 300 264 256
23 12 20 34 92 116 135 109 113 120 60 335 348 348 12 59 334 13 26 49 55 26 189 37 6 4 344 13 3 303 340 302 358 348 358 17 53 272 109 143 95 104 100 291 272
36 20 32 51 59 103 112 102 62 43 49 339 337 358 24 20 26 359 23 38 66 298 51 85 61 24 350 307 237 303 328 230 290 201 2 251 91 284 32 23 121 124 88 9 345
45 26 36 45 59 103 121 73 40 85 360 329 335 355 346 359 5 15 36 33 44 32 8 332 87 100 1 313 201 295 13 341 356 359 233 303 343 250 284 59 69 71 57 6 358
38 27 35 40 61 115 132 53 68 318 270 340 308 291 65 359 359 335 59 70 46 9 341 49 330 23 345 56 276 352 96 123 286 298 280 311 231 257 130 103 65 68 48 47 42
26 20 26 33 48 117 103 53 166 204 269 341 264 57 350 358 29 13 36 44 42 15 56 17 271 115 40 354 14 337 67 40 245 85 40 237 280 299 53 43 72 73 66 74 23
9 7 10 14 39 95 72 127 189 255 303 241 91 110 309 327 8 37 15 7 95 46 344 79 303 180 169 234 79 94 326 34 343 334 310 282 274 245 275 56 343 63 40 3 330
18 23 1 3 9 56 88 174 233 268 350 358 38 28 40 333 336 333 346 138 30 124 41 110 115 287 104 195 165 47 34 40 125 156 226 298 257 226 180 180 167 269 337 304 322
25 34 359 4 39 50 65 152 112 100 39 18 350 65 264 164 279 339 319 70 61 66 78 113 103 272 244 94 45 317 201 188 145 259 228 195 272 4 175 171 150 347 296 313 314
32 8 12 24 73 44 68 39 83 134 110 50 62 28 53 156 357 331 288 102 161 1 47 146 268 327 318 11 136 197 200 178 113 108 213 187 260 220 218 198 254 307 325 334 336
15 22 30 52 72 109 135 320 143 191 181 167 147 144 179 22 230 278 260 180 198 161 210 66 255 205 225 235 109 253 198 204 163 205 230 236 271 276 273 266 338 319 315 316 316
23 59 33 328 23 76 77 160 120 242 229 205 314 231 174 176 226 233 234 185 184 180 164 161 236 304 261 272 262 267 261 210 207 230 226 271 272 275 294 308 307 307 310 309 292
31 23 45 77 56 112 106 221 179 244 154 257 226 183 182 188 213 238 184 206 212 168 190 131 276 18 292 289 278 276 260 231 235 252 253 262 275 280 285 243 289 286 286 267 283
8 26 353 191 187 81 224 186 223 169 197 180 207 162 249 252 274 270 250 272 70 146 179 157 173 61 263 341 335 295 248 182 213 211 175 216 251 165 272 260 272 273 278 280 283